This demonstration page uses our WeatherBlox Daily Observations layout. Learn more.

Left ArrowRight Arrow

53.62937, 11.41316

Hourly Observations for June 1, 2017

Temp ( °F °C ) Dew Point ( °F °C ) Humidity (%) Winds ( mph kmh ) Pressure ( in mb ) Visibility ( mi km ) Precip ( " mm )
6:20 am 06:20 Mostly Sunny 46 8 43 6 87 87 WSW 8 13 30.15 1021 7 11 N/A
6:50 am 06:50 Mostly Sunny 48 9 45 7 87 87 W 12 19 30.15 1021 7 11 N/A
7:20 am 07:20 Mostly Sunny 48 9 45 7 87 87 W 12 19 30.15 1021 7 11 N/A
7:50 am 07:50 Mostly Sunny 50 10 45 7 82 82 W 10 17 30.15 1021 7 11 N/A
8:20 am 08:20 Mostly Sunny 52 11 45 7 77 77 W 13 20 30.15 1021 7 11 N/A
8:50 am 08:50 Mostly Sunny 54 12 46 8 77 77 WNW 13 20 30.15 1021 7 11 N/A
9:20 am 09:20 Mostly Sunny 55 13 46 8 72 72 W 12 19 30.15 1021 7 11 N/A
9:50 am 09:50 Mostly Sunny 55 13 46 8 72 72 W 12 19 30.15 1021 7 11 N/A
10:20 am 10:20 Mostly Sunny 57 14 46 8 67 67 W 13 20 30.18 1022 30 48 N/A
10:50 am 10:50 Mostly Sunny 59 15 48 9 68 68 W 12 19 30.18 1022 7 11 N/A
11:20 am 11:20 Mostly Sunny 61 16 48 9 63 63 W 13 20 30.18 1022 7 11 N/A
11:50 am 11:50 Mostly Sunny 61 16 48 9 63 63 WSW 15 24 30.18 1022 7 11 N/A
12:20 pm 12:20 Mostly Sunny 63 17 46 8 56 56 W 12 19 30.18 1022 7 11 N/A
12:50 pm 12:50 Mostly Sunny 63 17 46 8 56 56 W 14 22 30.15 1021 7 11 N/A
1:20 pm 13:20 Mostly Sunny 64 18 46 8 52 52 W 14 22 30.15 1021 7 11 N/A
1:50 pm 13:50 Mostly Sunny 66 19 45 7 46 46 W 13 20 30.15 1021 7 11 N/A
2:20 pm 14:20 Mostly Sunny 66 19 45 7 46 46 W 12 19 30.15 1021 7 11 N/A
2:50 pm 14:50 Mostly Sunny 66 19 43 6 43 43 W 13 20 30.15 1021 7 11 N/A
3:20 pm 15:20 Mostly Sunny 68 20 46 8 46 46 W 13 20 30.15 1021 7 11 N/A
3:50 pm 15:50 Mostly Sunny 68 20 46 8 46 46 W 12 19 30.15 1021 7 11 N/A
4:20 pm 16:20 Mostly Sunny 68 20 46 8 46 46 WNW 12 19 30.12 1020 7 11 N/A
4:50 pm 16:50 Mostly Sunny 68 20 46 8 46 46 WSW 13 20 30.12 1020 7 11 N/A
5:20 pm 17:20 Mostly Sunny 68 20 46 8 46 46 WNW 9 15 30.12 1020 7 11 N/A
5:50 pm 17:50 Mostly Sunny 68 20 45 7 43 43 W 9 15 30.12 1020 7 11 N/A

Powered by AerisWeather